#timestamp,LO_Frequency,Hit,StdDev 
1594764015.6,286046998.5,N
1594764035.4,286047001.2,N
1594764055.3,286047000.5,N
1594764075.1,286047000.5,N
1594764095.9,286046998.4,N
1594764115.7,286046998.1,N
1594764135.5,286046998.2,N
1594764155.4,286046998.8,N
1594764175.2,286046996.5,Y
1594764195.1,286046998.7,P
1594764196.0,286046998.7,P
1594764215.8,286046998.5,P
1594764235.6,286046999.1,Y
1594764255.5,286047000.6,P
1594764275.3,286047000.5,N
1594764295.2,286047002.7,P
1594764315.9,286047000.0,N
1594764335.7,286047002.6,N
1594764355.6,286047001.9,N
1594764375.4,286047003.9,N
1594764395.2,286047004.1,N
1594764415.1,286047004.1,N
1594764416.0,286047004.1,N
1594764435.8,286047006.9,Y
1594764455.7,286047004.6,P
1594764475.5,286047004.9,P
1594764495.3,286047006.0,P
1594764515.2,286047011.9,Y
1594764535.0,286047000.0,P
1594764535.9,286047000.0,N
1594764555.8,286047004.0,N
1594764575.6,286047004.0,N
1594764595.4,286047002.7,N
1594764615.3,286047003.6,N
1594764635.1,286047004.5,N
1594764655.9,286047003.1,N
1594764675.7,286047005.2,Y
1594764695.5,286046998.6,P
1594764715.4,286046996.9,N
1594764735.2,286046999.3,N
1594764755.1,286046997.1,N
1594764756.0,286046997.1,N
1594764775.8,286046995.3,N
1594764795.6,286046996.9,N
1594764815.5,286046997.1,N
1594764835.3,286046998.9,N
1594764855.1,286046996.6,N
1594764875.9,286046999.0,N
1594764895.7,286047001.2,N
1594764915.6,286046998.6,N
1594764935.4,286046999.5,N
1594764955.2,286046998.3,N
1594764975.1,286046998.4,N
1594764976.0,286046998.4,N
1594764995.8,286047000.0,N
1594765015.7,286046998.8,N
1594765035.5,286046997.3,N
1594765055.3,286046997.7,N
1594765075.2,286046997.7,N
1594765095.0,286046997.1,N
1594765095.9,286046997.1,N
1594765115.8,286046996.6,N
1594765135.6,286046995.4,N
1594765155.4,286046995.6,N
1594765175.3,286046995.4,N
1594765195.1,286046997.2,N
1594765215.9,286046997.5,N
1594765235.7,286046997.5,N
1594765255.5,286046998.0,N
1594765275.4,286046997.5,N
1594765295.2,286046999.2,N
1594765315.0,286046996.5,N
1594765315.9,286046996.5,N
1594765335.8,286046998.7,N
1594765355.6,286046999.1,N
1594765375.5,286046996.8,N
1594765395.3,286046997.5,N
1594765415.1,286046995.8,Y
1594765435.9,286046997.1,P
1594765455.7,286046997.1,P
1594765475.6,286046997.8,P
1594765495.4,286047000.4,N
1594765515.2,286046999.4,N
1594765535.1,286046997.3,N
1594765536.0,286046997.3,N
1594765555.8,286046996.7,N
1594765575.6,286046996.9,N
1594765595.5,286046998.5,N
1594765615.3,286046999.3,N
1594765635.2,286046996.7,N
1594765655.9,286046995.6,Y
1594765675.7,286046996.9,P
1594765695.6,286046996.9,P
1594765715.4,286046997.5,P
1594765735.3,286046999.6,N
1594765755.1,286046999.6,N
1594765756.0,286046999.6,N
1594765775.8,286046997.9,N
1594765795.7,286046997.9,N
1594765815.5,286046997.9,N
1594765835.3,286046997.9,N
1594765855.2,286046996.7,Y
1594765875.0,286046998.1,P
1594765875.9,286046998.1,P
1594765895.8,286046998.2,P
1594765915.6,286046998.3,Y
1594765935.4,286047000.2,P
1594765955.3,286047002.7,N
1594765975.1,286047000.0,N
1594765995.9,286047000.0,N
1594766015.7,286047001.0,N
1594766035.5,286047000.3,N
1594766055.4,286046999.7,N
1594766075.2,286047002.6,N
1594766095.1,286047000.0,N
1594766096.0,286047000.0,N
1594766115.8,286047001.0,N
1594766135.6,286047002.4,N
1594766155.5,286047002.7,N
1594766175.3,286047000.0,N
1594766195.1,286046999.8,N
1594766215.9,286047002.8,N
1594766235.7,286047000.2,N
1594766255.6,286047000.0,N
1594766275.4,286046999.7,N
1594766295.2,286047002.3,N
1594766315.1,286046999.9,N
1594766316.0,286046999.9,N
1594766335.8,286047002.5,N
1594766355.7,286046999.7,N
1594766375.5,286047002.5,N
1594766395.3,286047002.4,N
1594766415.2,286047000.6,N
1594766435.0,286047000.6,N
1594766435.9,286047000.6,N
1594766455.8,286046998.1,N
1594766475.6,286046998.1,N
1594766495.4,286047000.6,N
1594766515.3,286047002.6,N
1594766535.1,286047001.3,N
1594766555.9,286047002.4,N
1594766575.7,286047002.0,N
1594766595.5,286047002.7,N
1594766615.4,286047000.0,N
1594766635.2,286047000.3,N
1594766655.1,286047000.5,N
1594766656.0,286047000.5,N
1594766675.8,286047000.2,N
1594766695.6,286047001.0,N
1594766715.5,286047000.3,N
1594766735.3,286047000.0,N
1594766755.1,286047003.9,Y
1594766775.9,286047002.4,P
1594766795.7,286047004.1,P
1594766815.6,286047003.2,N
1594766835.4,286047002.1,N
1594766855.2,286047002.4,N
1594766875.1,286046999.8,N
1594766876.0,286046999.8,N
1594766895.8,286046999.9,N
1594766915.7,286047001.8,N
1594766935.5,286047002.4,N
1594766955.3,286047003.4,N
1594766975.2,286047002.2,N
1594766995.0,286047000.2,N
1594766995.9,286047000.2,N
1594767015.8,286047002.6,N
1594767035.6,286047002.3,N
1594767055.4,286047002.7,N
1594767075.3,286046999.9,N
1594767095.1,286047000.5,N
1594767115.8,286047000.5,N
1594767135.7,286047000.8,N
1594767155.5,286046998.8,N
1594767175.4,286047000.1,N
1594767195.2,286047001.4,N
1594767215.0,286046999.8,N
1594767215.9,286046999.8,N
1594767235.8,286046999.8,N
1594767255.6,286047001.6,N
1594767275.5,286047002.8,N
1594767295.3,286047002.3,N
1594767315.1,286047002.2,N
1594767335.9,286047000.2,N
1594767355.7,286047000.2,N
1594767375.5,286047004.4,Y
1594767395.4,286047000.0,P
1594767415.2,286047000.3,N
1594767435.1,286047001.1,N
1594767436.0,286047001.1,N
1594767455.8,286046998.2,Y
1594767475.6,286046998.4,P
1594767495.5,286046998.1,N
1594767515.3,286047001.1,N
1594767535.2,286047002.6,N
1594767555.9,286046999.9,N
1594767575.7,286047000.2,N
1594767595.6,286047002.3,N
